Terminal Aerodrome Forecast
Issued by NWS

Home | Current Version | Previous Version | Text Only | Print | Product List | Glossary On
Versions: 1 2 3 4 5 6 7 8 9 10 11 12 13 14 15 16 17 18 19 20 21 22 23 24 25 26 27 28 29 30 31 32 33 34 35 36 37 38 39 40 41 42 43 44 45 46 47 48 49 50
927
FTUS42 KMFL 241931 AAA
TAFMIA
TAF AMD
KMIA 241931Z 2420/2518 11012KT P6SM SHRA VCTS BKN030CB BKN060
      TEMPO 2420/2421 VRB10G20KT 2SM +TSRA BKN025CB
     FM250200 08008KT P6SM SCT060
     FM251400 07012KT P6SM SCT035=

USA.gov is the U.S. government's official web portal to all federal, state and local government web resources and services.